Dewpoint
52 52 52 51 51 52 53 54 55 54 53 51 52 51 51 51 51 51 49 49 50 50 52 53 50 52 53 54 53 54 54 54 53 53 53 54 53 52 50 49 47 48 48 49 50 50 48 46 47 49 50 51 50 50 49 50 52 51 52 52 51 53 54 55 55 52 48 48 45 45 45 48 43 45 46 46 49 50 52 53 54 53 50 50 48
51 52 52 52 51 52 53 54 54 53 52 52 52 51 51 51 51 50 51 49 49 50 52 51 51 51 53 52 51 51 51 52 53 53 52 52 52 51 50 48 47 47 48 46 48 49 49 47 47 49 49 48 49 48 49 48 47 48 48 50 48 50 53 51 50 48 44 46 42 44 42 43 41 45 46 46 48 49 51 53 52 50 48 47 46
49 52 52 52 52 52 53 54 53 53 53 51 51 51 51 51 49 50 49 48 48 50 52 50 50 51 52 52 51 51 52 52 53 52 50 48 46 48 48 48 48 47 46 46 44 47 47 47 47 49 49 49 48 49 49 48 47 47 47 47 48 49 49 51 49 45 43 41 43 40 40 39 40 40 43 44 46 48 47 51 52 48 46 46 45
49 50 52 52 51 52 52 53 53 53 53 52 52 51 51 50 49 49 49 47 46 52 50 47 49 51 51 51 51 50 50 49 48 47 46 45 44 44 45 47 47 46 46 46 45 46 46 47 47 48 49 48 47 47 48 48 47 47 46 46 47 47 47 47 47 44 40 36 39 37 37 34 33 38 41 40 39 44 45 47 50 48 44 42 43
48 49 51 52 51 52 52 53 53 53 53 52 51 50 50 50 49 47 48 47 47 51 50 48 48 49 49 47 47 44 43 43 43 44 45 46 45 45 45 45 46 46 47 46 46 46 45 46 46 47 48 48 47 47 48 48 45 47 45 42 42 42 42 43 41 41 39 36 35 35 37 35 33 36 38 36 35 38 42 42 45 45 42 41 39
48 49 50 51 50 51 52 52 53 53 53 52 51 50 50 50 49 48 46 45 48 50 49 49 48 47 45 42 42 42 42 42 41 41 42 45 46 46 46 46 45 45 46 46 45 45 45 44 45 46 46 47 48 47 46 45 43 43 44 42 37 40 41 40 40 39 36 34 35 32 35 35 33 31 33 35 34 35 38 38 41 45 42 38 34
49 50 50 50 50 51 51 53 53 53 53 52 51 49 49 49 47 45 45 46 47 49 49 49 49 45 43 43 43 43 41 41 42 42 41 42 44 44 45 45 46 47 46 44 44 44 43 42 43 43 43 44 46 47 46 44 43 44 44 43 41 40 39 37 35 36 36 34 30 31 30 32 34 28 26 32 33 32 38 38 35 42 45 39 33
49 50 50 50 49 50 51 52 52 53 52 50 49 49 49 48 46 44 44 45 46 46 48 48 47 45 45 44 43 42 41 40 40 39 40 43 44 44 45 45 44 44 46 45 44 42 42 42 42 41 40 40 42 43 46 46 41 43 44 42 40 39 37 34 33 31 32 32 28 26 28 29 30 30 31 35 34 34 36 36 35 38 41 41 38
49 49 49 50 49 49 51 51 51 52 50 49 49 49 48 48 45 43 44 45 47 46 48 46 44 44 43 44 42 42 42 43 45 45 41 42 44 44 44 43 43 42 42 43 43 41 41 41 41 40 41 41 40 39 40 41 42 40 43 44 40 37 37 35 31 27 30 30 29 29 27 28 29 30 29 32 34 35 37 36 36 38 37 37 38
49 48 48 49 49 48 50 51 49 51 49 49 48 49 47 46 44 42 41 43 46 47 47 47 44 44 43 43 43 43 41 42 43 43 44 44 42 42 43 42 42 42 42 42 43 42 40 41 43 42 41 41 39 38 37 37 38 38 38 41 44 39 35 35 33 28 28 28 28 29 29 30 29 33 33 34 38 39 37 34 34 35 35 34 37
49 48 47 48 49 48 49 49 50 49 49 48 49 47 46 46 42 40 41 43 45 45 47 46 46 45 44 44 44 43 41 39 41 39 39 41 44 42 41 41 40 40 40 40 40 42 42 41 44 44 43 39 37 38 37 37 37 36 36 37 37 41 42 36 35 36 28 28 28 31 30 32 31 31 32 34 37 38 36 32 35 37 34 31 31
48 48 47 48 48 47 49 48 48 48 48 47 47 46 46 44 40 38 40 43 43 45 47 46 46 46 46 44 44 43 42 43 38 39 39 39 43 45 41 40 39 38 38 36 35 36 39 40 40 40 42 41 38 36 37 38 38 37 36 36 35 35 35 39 40 35 35 31 29 31 33 33 29 31 31 35 36 36 35 31 35 37 37 32 33
48 48 46 48 46 48 48 47 46 47 46 47 47 46 44 42 40 37 39 42 43 44 45 47 47 47 46 44 43 42 41 40 38 39 39 39 39 43 38 40 39 38 36 36 36 36 35 37 39 39 35 38 36 37 38 40 39 39 39 40 38 36 33 34 35 39 37 34 33 32 34 35 30 30 35 37 39 35 34 29 35 37 38 37 36
48 47 46 47 46 47 48 46 46 46 46 47 47 45 44 42 41 37 37 40 43 44 47 48 48 47 46 45 44 43 42 42 39 39 39 39 39 39 39 40 39 38 37 36 36 37 37 36 36 37 38 39 39 37 35 36 37 37 35 33 32 35 37 36 35 36 37 37 35 33 34 36 34 35 37 36 37 36 35 34 38 38 39 39 43
48 47 47 47 47 47 46 46 47 46 46 47 47 45 44 44 39 35 34 37 41 43 45 47 48 47 46 45 45 45 44 39 39 39 39 39 39 39 40 39 38 38 37 37 36 36 36 36 35 33 33 32 38 36 35 34 34 35 33 32 29 27 29 30 34 35 34 34 34 34 34 34 35 35 36 35 38 39 40 40 39 38 38 41 42
47 47 47 47 46 46 46 47 47 46 46 47 47 45 45 44 39 35 34 34 38 40 43 45 47 47 46 46 46 44 43 37 38 39 38 38 38 41 40 39 38 36 36 36 34 34 33 34 34 33 32 33 33 35 36 39 32 33 33 33 31 29 25 28 31 31 34 32 33 33 32 33 32 34 33 34 35 39 40 32 34 36 26 24 25
46 47 47 47 46 46 45 47 47 47 47 47 46 46 45 43 40 35 34 34 35 36 40 42 44 45 46 46 45 45 43 40 37 38 38 37 41 39 40 36 37 37 36 35 33 36 38 35 31 29 30 31 35 34 34 40 31 30 30 32 32 30 30 30 32 31 31 30 30 30 31 32 33 34 33 34 36 39 35 27 31 32 24 22 26
46 47 47 46 46 46 45 45 48 48 47 47 47 47 46 43 40 36 32 31 31 33 35 37 40 42 44 44 44 44 45 41 37 37 37 37 39 41 37 37 38 38 38 35 31 30 32 40 41 32 32 34 34 35 34 42 32 32 32 31 31 31 32 32 32 37 32 31 31 29 31 32 34 33 34 34 35 37 36 31 35 30 27 26 22
46 47 47 46 45 46 46 46 48 48 47 47 48 48 47 44 41 37 35 32 33 31 29 31 34 37 41 44 44 44 46 41 36 36 36 36 41 42 35 35 36 36 35 34 33 29 27 32 37 37 35 35 34 34 34 39 34 34 31 30 28 30 31 31 32 33 36 37 37 38 37 39 39 34 35 33 35 35 36 36 34 31 26 23 24
44 46 46 46 46 46 47 47 48 48 47 48 48 47 48 46 43 39 36 32 31 30 30 31 31 32 37 38 40 43 42 44 41 35 36 36 36 42 36 34 35 34 32 30 31 31 28 27 32 34 34 33 34 33 34 33 41 37 35 30 30 29 28 28 34 33 32 32 35 35 35 34 33 32 31 31 34 36 35 35 36 34 30 24 24
46 46 46 46 46 46 47 47 48 48 47 48 48 48 47 47 44 41 37 35 35 36 37 37 37 36 35 35 35 40 41 43 42 36 36 36 36 37 38 36 34 33 31 29 28 30 29 26 26 33 33 33 33 33 33 33 34 34 36 31 36 40 38 30 32 32 35 34 29 26 26 25 26 26 25 25 26 32 32 34 35 34 31 27 25
47 46 46 46 46 46 48 48 50 49 48 49 48 47 47 48 46 43 37 37 39 40 41 39 37 35 36 35 35 36 39 39 41 37 36 36 35 35 39 38 36 33 32 30 29 31 30 27 28 32 33 33 33 32 32 32 32 25 30 31 31 32 41 30 30 28 25 24 20 19 21 19 18 21 22 23 24 31 31 31 34 34 33 31 30
46 46 47 46 47 47 48 49 50 47 49 49 48 48 46 46 47 44 41 40 41 42 42 40 39 38 38 36 37 36 35 35 37 39 35 35 35 35 35 38 34 44 34 32 33 33 33 33 31 33 33 34 34 33 34 32 30 29 29 30 29 31 34 25 26 26 22 22 24 23 20 19 20 17 20 22 26 33 31 32 34 33 34 33 30
47 47 48 47 47 47 48 49 50 48 49 49 48 47 47 47 46 44 42 41 40 42 39 40 39 39 38 36 38 36 35 32 35 36 37 34 35 34 35 35 34 39 38 34 33 32 32 33 32 33 33 33 32 32 32 32 28 30 31 32 33 34 28 26 24 25 23 19 20 19 20 18 18 17 21 28 28 32 33 35 35 34 34 34 33
48 48 47 47 48 48 48 49 48 47 49 49 48 46 47 47 46 45 44 42 40 40 40 39 39 39 38 38 36 34 35 34 31 35 35 35 34 34 34 35 34 35 42 35 34 37 36 33 33 33 31 31 31 31 31 29 30 30 31 32 38 23 25 22 23 24 20 19 17 20 18 19 19 22 31 33 32 29 31 32 35 34 34 35 36
48 48 47 48 49 47 48 47 47 47 49 48 48 47 47 47 46 45 44 43 40 41 40 38 37 38 38 37 36 35 35 33 34 33 33 34 34 34 34 35 36 39 39 40 34 33 32 32 33 32 32 31 34 33 25 22 30 30 29 34 28 21 21 20 23 21 19 16 17 16 15 17 18 27 31 30 25 21 27 27 27 24 29 29 30
48 48 48 48 49 47 48 46 45 46 48 47 47 47 47 47 46 44 44 42 42 40 40 39 38 37 39 37 37 36 35 33 33 32 25 28 29 34 36 36 37 38 37 36 34 30 31 30 28 30 33 32 32 29 26 26 27 31 27 22 23 20 21 23 24 23 21 18 18 17 16 19 23 24 23 22 21 21 26 26 24 22 26 27 25
48 48 49 48 47 47 46 43 44 45 46 46 45 45 46 47 45 44 44 43 42 41 41 40 38 38 38 38 37 35 34 33 32 33 31 28 27 26 31 34 35 33 33 33 32 30 29 34 33 32 30 26 21 24 28 31 25 21 20 18 17 17 21 21 25 24 24 22 19 19 19 22 18 19 20 19 18 20 24 25 25 25 25 26 21
48 49 48 48 47 46 46 45 44 44 45 46 45 45 45 46 45 45 47 44 44 44 43 42 40 39 38 38 37 38 35 34 35 32 34 31 28 29 31 34 34 33 36 33 33 34 34 31 29 29 27 28 27 28 23 23 23 24 28 25 23 22 23 19 22 21 22 21 19 18 17 18 17 18 17 18 21 20 22 26 28 28 27 25 22
48 48 48 47 47 46 46 45 44 42 44 44 45 46 40 41 43 44 45 43 41 40 40 43 43 40 39 39 40 37 35 35 34 32 32 32 32 31 32 33 33 33 34 33 35 33 32 29 30 27 28 25 23 21 21 24 24 22 19 18 21 18 18 18 18 19 22 20 18 16 17 18 14 15 15 15 19 20 21 24 25 26 24 19 20
46 46 47 46 45 46 44 44 44 42 43 44 45 43 45 45 37 36 36 42 41 40 40 40 40 39 40 39 40 35 34 33 32 31 32 32 33 33 34 34 35 35 33 35 33 32 29 30 30 28 24 23 25 23 20 20 21 24 23 21 19 17 18 18 18 18 18 17 17 18 17 16 14 14 15 15 21 18 18 20 21 24 23 19 18
45 45 46 46 45 46 44 44 45 42 41 43 43 42 43 44 44 35 35 36 39 39 39 39 39 39 39 42 44 40 36 33 32 31 31 33 33 34 34 35 35 35 34 34 30 29 29 26 28 25 25 22 23 21 19 20 19 20 20 23 20 21 21 19 21 22 18 17 15 16 15 15 14 14 16 15 20 17 17 20 18 19 20 21 21
46 46 46 46 45 44 42 43 44 44 43 42 43 42 41 41 41 42 37 34 35 37 38 38 38 38 38 38 38 38 36 34 32 31 31 32 33 33 34 35 35 35 34 32 28 28 27 27 26 26 26 22 22 21 20 22 20 21 19 20 20 17 20 20 21 20 17 16 20 16 16 15 16 20 17 19 18 17 16 18 16 18 20 18 19
47 46 45 46 45 44 43 44 44 43 41 41 42 41 41 42 39 40 40 39 38 35 35 36 37 37 37 37 37 37 35 34 33 31 31 32 32 33 34 35 35 35 33 30 28 27 28 28 26 25 25 24 23 25 24 22 20 19 20 21 21 22 23 22 23 18 19 18 19 18 20 18 17 17 19 20 18 19 17 19 16 17 19 19 19
46 41 39 42 46 45 44 43 44 43 42 42 41 41 41 40 40 39 39 39 39 38 39 38 36 37 39 37 37 37 35 34 33 32 31 32 33 33 34 33 33 32 32 31 28 28 28 26 26 26 27 24 26 26 24 25 23 23 23 21 21 19 19 18 21 19 19 18 20 18 17 20 20 17 19 18 19 19 18 20 20 17 20 22 21
46 45 46 46 45 45 45 44 44 44 42 41 42 41 40 40 39 39 39 39 38 37 38 39 39 36 37 37 37 36 35 34 34 32 31 32 33 33 29 27 28 30 29 28 28 27 28 28 28 28 28 27 27 26 23 26 25 22 21 21 22 19 17 16 16 16 20 20 18 16 17 18 18 18 18 18 24 19 19 21 21 19 22 20 19
46 45 45 45 45 45 45 44 45 44 39 42 40 41 41 40 40 39 40 41 40 38 36 37 39 39 36 37 38 36 35 34 33 32 32 32 33 30 21 23 24 25 29 29 28 29 28 29 29 27 28 27 26 25 22 25 24 23 24 21 20 19 18 17 16 18 15 16 13 16 19 19 18 20 18 16 13 16 16 18 22 19 18 20 23
46 45 45 46 46 46 46 45 44 39 43 43 43 42 42 41 40 40 39 39 38 38 36 34 37 36 35 36 38 37 34 33 33 32 32 33 31 26 21 24 23 25 28 27 28 29 28 27 29 28 27 28 26 25 24 23 23 23 22 21 21 19 24 19 21 20 20 16 17 17 22 17 17 16 12 16 15 21 17 19 19 24 21 23 21
46 41 39 38 40 44 44 44 44 43 43 42 42 42 40 40 39 39 38 38 38 38 37 35 36 35 34 35 36 36 33 31 29 27 27 26 26 23 18 20 22 24 26 27 27 26 26 25 25 25 26 25 26 26 24 23 24 24 23 21 23 23 21 18 13 16 18 16 15 16 12 14 19 16 23 15 14 20 19 20 19 18 19 19 19
45 45 41 37 42 43 41 45 44 44 41 42 41 41 40 40 39 39 39 37 38 38 38 36 34 36 35 35 34 33 32 31 29 28 26 24 23 23 19 20 23 24 26 27 27 27 27 25 25 25 26 26 25 25 25 24 26 23 23 20 20 24 21 17 16 17 15 14 12 11 12 14 19 19 18 15 16 18 20 19 24 17 20 19 20
45 46 41 39 40 42 41 42 43 43 42 41 41 41 41 40 40 40 38 38 37 38 39 38 37 36 34 35 34 32 32 31 29 27 27 24 24 22 21 20 22 24 25 25 26 26 27 26 25 26 26 25 26 27 25 24 24 23 23 22 22 21 22 19 18 17 16 15 13 13 12 13 13 13 13 15 23 19 17 17 17 18 20 19 21
45 45 44 44 40 43 41 41 42 43 42 42 41 41 40 40 40 39 38 38 37 37 37 38 38 36 35 35 33 32 33 30 28 27 26 24 23 23 21 21 22 24 26 26 26 28 28 28 25 26 26 27 27 26 27 24 25 23 23 22 21 22 19 18 19 18 16 15 15 15 15 14 13 13 19 25 14 15 16 17 18 20 19 19 19
46 46 45 44 43 42 41 41 41 42 41 41 40 38 39 40 40 40 39 38 38 37 37 37 37 37 35 33 32 31 31 30 28 27 24 24 22 22 22 22 23 25 28 28 26 27 29 28 27 26 27 26 26 26 25 24 24 23 23 25 22 20 20 17 17 17 15 16 16 18 19 17 17 14 17 16 16 16 17 18 19 18 19 18 21
47 46 44 44 42 41 40 41 41 42 41 39 39 40 40 41 40 40 39 39 38 38 37 37 36 36 36 33 32 31 30 31 29 26 25 26 26 23 23 23 25 26 28 27 27 28 28 30 29 27 29 27 27 30 27 25 26 25 22 23 21 21 21 17 17 18 16 16 16 19 20 19 15 13 17 16 17 17 17 20 19 18 17 17 24
48 46 45 43 44 42 41 41 41 41 39 39 41 40 41 40 39 39 39 39 37 37 37 36 36 36 35 34 33 31 31 30 29 28 26 26 26 26 25 26 27 29 26 27 28 31 30 29 29 30 30 28 28 30 27 25 26 26 22 21 21 22 19 19 17 17 17 18 16 17 15 15 16 15 16 16 18 19 16 19 18 20 16 16 18
46 45 44 43 42 42 41 42 40 42 42 40 41 41 40 40 40 39 39 39 38 37 37 36 36 36 35 34 33 31 31 31 30 28 28 28 26 27 28 26 28 28 28 27 28 31 30 31 29 29 31 30 30 29 28 28 27 26 25 23 24 22 20 18 18 19 17 18 17 16 14 16 17 14 17 15 15 16 17 20 19 17 16 18 19
47 45 44 43 42 42 42 42 42 41 42 41 41 41 41 43 41 43 37 38 38 39 44 37 48 43 39 34 33 32 32 31 31 29 30 30 29 28 28 29 27 30 29 30 31 30 32 32 30 31 33 31 31 32 28 26 25 25 25 22 21 21 19 17 18 20 19 19 16 14 15 15 15 13 16 17 16 16 20 19 20 19 20 17 19
46 45 44 43 43 43 42 43 42 38 41 41 41 41 40 41 39 38 38 39 38 38 37 37 39 38 38 35 34 32 32 31 31 31 30 30 30 30 30 31 30 29 30 30 31 31 31 32 32 33 33 32 32 30 28 26 26 25 24 22 21 20 23 25 19 19 18 18 16 16 16 15 14 17 17 18 18 17 18 17 18 17 18 17 15
45 45 44 44 43 44 42 42 41 41 41 41 40 40 39 40 39 39 38 38 38 38 38 38 38 37 36 35 35 33 32 33 31 31 30 30 31 32 31 32 32 31 30 30 30 32 33 32 33 32 32 31 32 31 29 27 26 25 24 22 23 29 29 27 22 18 20 19 18 19 20 19 17 19 19 18 18 18 16 17 17 16 17 18 17
44 44 44 44 43 42 42 42 42 42 42 41 41 41 40 40 40 39 39 39 39 39 38 38 38 38 37 36 35 35 33 32 32 32 31 31 30 31 32 33 33 33 31 31 31 31 32 33 34 33 33 32 31 31 29 28 27 25 24 21 29 28 27 26 25 25 18 16 15 15 16 16 18 18 18 18 19 19 18 18 18 18 17 17 17
44 44 44 43 43 43 43 43 43 43 44 43 42 42 41 40 40 40 39 39 39 39 39 39 38 38 38 38 36 35 34 34 34 34 32 32 32 32 32 33 33 34 33 32 31 31 33 33 32 32 32 32 31 30 29 27 26 25 30 29 28 27 26 25 22 23 23 21 18 15 18 17 19 19 17 16 16 17 18 19 20 17 15 15 16